GW6341 Weather Reports


Display with metric or nautical units.
time (UTC)temp
F
wind
direction
speed
MPH
gust
MPH
rain 1hr
in
rain 24hr
in
rain mn
in
humidity
%
barometer
mb
20260503172954 74 89 5.0 6.0 0.00 0.00 0.00 52 1010.7
20260503172452 73 98 4.0 6.0 0.00 0.00 0.00 53 1010.6
20260503171948 73 97 5.0 6.0 0.00 0.00 0.00 53 1010.7
20260503171444 73 83 3.0 3.0 0.00 0.00 0.00 53 1010.4
20260503170942 74 127 2.0 2.0 0.00 0.00 0.00 59 1010.6
20260503170438 73 89 1.0 2.0 0.00 0.00 0.00 53 1010.6
20260503150831 67 2 1.0 1.0 0.00 0.00 0.00 74 1010.8
20260503150327 68 2 1.0 1.0 0.00 0.00 0.00 75 1010.8
20260503140251 62 2 0.0 0.0 0.00 0.00 0.00 82 1010.6
20260503131221 57 2 0.0 0.0 0.00 0.00 0.00 87 1010.7
20260503130718 57 3 0.0 0.0 0.00 0.00 0.00 87 1010.4
20260503130215 57 3 0.0 1.0 0.00 0.00 0.00 86 1010.5
20260503120141 57 3 1.0 1.0 0.00 0.00 0.00 87 1010.8
20260503110609 59 3 1.0 1.0 0.00 0.00 0.00 83 1010.8
20260503110106 59 3 1.0 1.0 0.00 0.00 0.00 81 1010.7
20260503090455 60 46 1.0 1.0 0.00 0.00 0.00 84 1011.2
20260503081422 58 48 1.0 1.0 0.00 0.00 0.00 87 1011.4
20260503080919 57 48 1.0 1.0 0.00 0.00 0.00 88 1011.3
20260503080415 57 48 0.0 0.0 0.00 0.00 0.00 87 1011.2
20260503072852 57 63 0.0 0.0 0.00 0.00 0.00 88 1011.7
20260503072349 58 63 0.0 0.0 0.00 0.00 0.00 87 1011.5
20260503071845 57 64 0.0 0.0 0.00 0.00 0.00 89 1011.5
20260503071343 57 65 0.0 0.0 0.00 0.00 0.00 89 1011.7
20260503070839 56 65 0.0 0.0 0.00 0.00 0.00 90 1011.5
20260503070337 57 64 0.0 0.0 0.00 0.00 0.00 90 1011.8
20260503060308 58 57 1.0 1.0 0.00 0.00 0.00 88 1011.5
20260503054755 58 58 0.0 0.0 0.00 0.00 0.00 89 1011.6
20260503054251 58 58 0.0 1.0 0.00 0.00 0.00 89 1011.6
20260503053750 58 59 1.0 1.0 0.00 0.00 0.00 88 1011.6
20260503053248 58 59 0.0 0.0 0.00 0.00 0.00 88 1011.7
20260503052744 58 59 0.0 1.0 0.00 0.00 0.00 88 1011.6
20260503052241 59 60 0.0 0.0 0.00 0.00 0.00 87 1011.6
20260503051736 59 61 0.0 0.0 0.00 0.00 0.00 86 1011.5
20260503051234 59 61 0.0 1.0 0.00 0.00 0.00 86 1011.5
20260503050730 60 93 0.0 0.0 0.00 0.00 0.00 85 1011.6
20260503050226 60 24 0.0 0.0 0.00 0.00 0.00 84 1011.4
20260503045724 60 24 1.0 1.0 0.00 0.00 0.00 84 1011.7
20260503045222 60 24 0.0 0.0 0.00 0.00 0.00 84 1011.7
20260503044718 60 23 1.0 1.0 0.00 0.00 0.00 85 1011.7
20260503044216 60 30 0.0 0.0 0.00 0.00 0.00 84 1011.8
20260503043712 60 29 0.0 0.0 0.00 0.00 0.00 83 1011.8
20260503043210 60 346 1.0 1.0 0.00 0.00 0.00 84 1011.6
20260503042705 60 20 1.0 1.0 0.00 0.00 0.00 84 1011.5
20260503042202 60 20 1.0 1.0 0.00 0.00 0.00 82 1011.7
20260503041658 61 23 1.0 1.0 0.00 0.00 0.00 82 1011.4
20260503041156 61 23 0.0 0.0 0.00 0.00 0.00 81 1011.2
20260503040653 61 21 1.0 1.0 0.00 0.00 0.00 81 1011.5
20260503040151 61 48 0.0 1.0 0.00 0.00 0.00 80 1011.4
20260503035647 61 45 0.0 0.0 0.00 0.00 0.00 81 1011.1
20260503035145 60 39 1.0 1.0 0.00 0.00 0.00 82 1011.1
20260503034642 60 36 1.0 1.0 0.00 0.00 0.00 83 1011.1
20260503034139 60 64 0.0 0.0 0.00 0.00 0.00 82 1010.8
20260503033636 60 65 0.0 0.0 0.00 0.00 0.00 82 1010.8
20260503033134 60 39 0.0 0.0 0.00 0.00 0.00 82 1010.6
20260503032632 61 37 0.0 1.0 0.00 0.00 0.00 82 1010.2
20260503032131 61 38 0.0 0.0 0.00 0.00 0.00 81 1010.2
20260503031627 61 36 1.0 1.0 0.00 0.00 0.00 81 1010.2
20260503031125 61 36 0.0 0.0 0.00 0.00 0.00 81 1010.6
20260503030621 61 7 1.0 1.0 0.00 0.00 0.00 82 1010.5
20260503030118 61 27 0.0 1.0 0.00 0.00 0.00 83 1010.5
20260503025614 61 358 1.0 1.0 0.00 0.00 0.00 83 1010.4
20260503025113 61 32 0.0 1.0 0.00 0.00 0.00 83 1010.8
20260503024608 62 258 1.0 1.0 0.00 0.00 0.00 80 1010.9
20260503024106 62 353 1.0 1.0 0.00 0.00 0.00 80 1010.9
20260503023602 62 37 0.0 0.0 0.00 0.00 0.00 82 1011.2
20260503023100 62 0 2.0 2.0 0.00 0.00 0.00 81 1011.3
20260503022555 63 59 0.0 1.0 0.00 0.00 0.00 79 1011.3
20260503022050 63 294 2.0 2.0 0.00 0.00 0.00 79 1011.4
20260503021547 63 5 1.0 1.0 0.00 0.00 0.00 78 1011.4
20260503021044 63 98 2.0 2.0 0.00 0.00 0.00 78 1012.2
20260503020541 63 112 2.0 3.0 0.00 0.00 0.00 77 1011.9
20260503020038 63 111 3.0 5.0 0.00 0.00 0.00 77 1012.1
20260503015535 64 99 3.0 3.0 0.00 0.00 0.00 75 1012.0
20260503015032 64 112 7.0 10.0 0.00 0.00 0.00 75 1011.9
20260503014528 65 122 5.0 7.0 0.00 0.00 0.00 74 1011.7
20260503014026 65 103 2.0 2.0 0.00 0.00 0.00 74 1011.4
20260503013523 65 101 3.0 3.0 0.00 0.00 0.00 72 1011.1
20260503013021 66 106 3.0 5.0 0.00 0.00 0.00 72 1011.5
20260503012518 66 97 3.0 3.0 0.00 0.00 0.00 71 1011.2
20260503012014 66 101 3.0 3.0 0.00 0.00 0.00 71 1011.3
20260503011511 66 91 1.0 1.0 0.00 0.00 0.00 75 1011.2
20260503011008 66 99 2.0 3.0 0.00 0.00 0.00 72 1011.2
20260503010504 67 201 3.0 3.0 0.00 0.00 0.00 69 1010.9
20260503010002 67 111 3.0 5.0 0.00 0.00 0.00 67 1011.1
20260503005459 67 125 3.0 3.0 0.00 0.00 0.00 71 1011.0
20260503004956 67 100 2.0 3.0 0.00 0.00 0.00 70 1011.0
20260503004452 67 106 2.0 5.0 0.00 0.00 0.00 65 1010.9
20260503003950 68 93 2.0 3.0 0.00 0.00 0.00 65 1010.9
20260503003447 68 71 2.0 3.0 0.00 0.00 0.00 63 1010.9
20260503002944 68 127 6.0 7.0 0.00 0.00 0.00 64 1010.8
20260503002441 69 110 3.0 3.0 0.00 0.00 0.00 61 1010.8
20260503001937 69 27 3.0 5.0 0.00 0.00 0.00 61 1010.8
20260503001434 69 106 3.0 3.0 0.00 0.00 0.00 62 1010.6
20260503000932 68 136 3.0 3.0 0.00 0.00 0.00 66 1010.7
20260503000430 68 121 1.0 1.0 0.00 0.00 0.00 69 1010.7
20260502235926 68 69 2.0 2.0 0.00 0.00 0.00 67 1010.7
20260502235422 68 83 3.0 3.0 0.00 0.00 0.00 67 1010.9
20260502234920 68 115 7.0 8.0 0.00 0.00 0.00 66 1010.9
20260502234416 68 45 3.0 3.0 0.00 0.00 0.00 65 1010.7
20260502233914 68 77 2.0 2.0 0.00 0.00 0.00 65 1010.7
20260502233409 68 139 2.0 2.0 0.00 0.00 0.00 70 1010.9
20260502232906 68 121 8.0 8.0 0.00 0.00 0.00 65 1011.0
20260502232402 67 58 0.0 0.0 0.00 0.00 0.00 65 1010.7
20260502231859 67 67 3.0 5.0 0.00 0.00 0.00 65 1010.9
20260502231357 67 125 2.0 2.0 0.00 0.00 0.00 65 1011.2
20260502230855 67 116 5.0 6.0 0.00 0.00 0.00 65 1011.3
20260502230353 67 142 5.0 6.0 0.00 0.00 0.00 68 1011.5
20260502225850 68 98 2.0 2.0 0.00 0.00 0.00 66 1011.3
20260502225346 67 84 4.0 5.0 0.00 0.00 0.00 67 1011.4
20260502224843 66 37 3.0 3.0 0.00 0.00 0.00 69 1011.6
20260502224339 66 36 1.0 1.0 0.00 0.00 0.00 68 1011.4
20260502223837 66 111 3.0 3.0 0.00 0.00 0.00 66 1011.8
20260502223335 66 126 5.0 7.0 0.00 0.00 0.00 67 1012.0
20260502222832 66 96 3.0 5.0 0.00 0.00 0.00 69 1011.9
20260502222330 66 79 5.0 6.0 0.00 0.00 0.00 68 1012.1
20260502221825 66 347 2.0 2.0 0.00 0.00 0.00 67 1012.1
20260502221321 66 50 3.0 5.0 0.00 0.00 0.00 68 1012.2
20260502220819 65 118 2.0 2.0 0.00 0.00 0.00 72 1012.3
20260502220314 65 105 2.0 2.0 0.00 0.00 0.00 68 1012.1
20260502215811 65 81 3.0 6.0 0.00 0.00 0.00 75 1012.3
20260502215309 64 89 1.0 2.0 0.00 0.00 0.00 74 1012.3
20260502214806 64 104 5.0 8.0 0.00 0.00 0.00 72 1012.4
20260502214302 64 107 4.0 6.0 0.00 0.00 0.00 71 1012.7
20260502213759 63 108 1.0 1.0 0.00 0.00 0.00 75 1012.4
20260502213257 63 17 3.0 5.0 0.00 0.00 0.00 70 1012.6
20260502212755 63 158 3.0 3.0 0.00 0.00 0.00 78 1012.5
20260502212253 63 116 8.0 9.0 0.00 0.00 0.00 72 1012.5
20260502211749 62 156 5.0 7.0 0.00 0.00 0.00 72 1012.7
20260502211246 62 120 3.0 7.0 0.00 0.00 0.00 75 1012.6
20260502210743 62 105 4.0 5.0 0.00 0.00 0.00 73 1013.0
20260502210241 63 68 3.0 3.0 0.00 0.00 0.00 71 1012.6
20260502205738 63 332 2.0 3.0 0.00 0.00 0.00 70 1013.0
20260502205233 62 181 3.0 3.0 0.00 0.00 0.00 71 1013.0
20260502204731 61 88 2.0 2.0 0.00 0.00 0.00 71 1013.0
20260502204228 62 126 3.0 5.0 0.00 0.00 0.00 76 1013.0
20260502203726 61 105 4.0 5.0 0.00 0.00 0.00 73 1013.2
20260502203224 61 82 3.0 3.0 0.00 0.00 0.00 73 1013.1
20260502202717 60 80 3.0 5.0 0.00 0.00 0.00 75 1013.2
20260502202216 60 61 3.0 5.0 0.00 0.00 0.00 74 1013.1
20260502201713 60 22 1.0 1.0 0.00 0.00 0.00 73 1013.5
20260502201210 60 154 2.0 2.0 0.00 0.00 0.00 76 1013.3
20260502200705 61 126 3.0 3.0 0.00 0.00 0.00 78 1013.3
20260502200202 60 337 1.0 1.0 0.00 0.00 0.00 79 1013.4
20260502195700 60 163 1.0 1.0 0.00 0.00 0.00 73 1013.6
20260502195156 59 196 3.0 3.0 0.00 0.00 0.00 78 1013.8
20260502194653 59 207 3.0 3.0 0.00 0.00 0.00 77 1013.8
20260502194150 57 42 1.0 2.0 0.00 0.00 0.00 75 1014.2
20260502193647 59 102 1.0 2.0 0.00 0.00 0.00 78 1014.4
20260502193144 58 107 1.0 2.0 0.00 0.00 0.00 79 1014.4
20260502192639 57 233 2.0 2.0 0.00 0.00 0.00 78 1014.4
20260502192137 56 91 1.0 2.0 0.00 0.00 0.00 79 1014.3
20260502191633 56 140 3.0 3.0 0.00 0.00 0.00 79 1014.2
20260502191131 55 52 0.0 1.0 0.00 0.00 0.00 81 1014.4
20260502190628 55 87 1.0 1.0 0.00 0.00 0.00 82 1014.5
20260502190126 54 93 1.0 1.0 0.00 0.00 0.00 82 1014.5
20260502185620 54 152 2.0 2.0 0.00 0.00 0.00 84 1014.5
20260502185117 55 99 2.0 2.0 0.00 0.00 0.00 81 1014.3
20260502184613 54 163 2.0 2.0 0.00 0.00 0.00 82 1014.6
20260502184109 53 91 2.0 2.0 0.00 0.00 0.00 84 1014.4
20260502183605 54 180 2.0 2.0 0.00 0.00 0.00 83 1014.5
20260502183102 53 78 1.0 1.0 0.00 0.00 0.00 84 1014.5
20260502182557 53 91 1.0 1.0 0.00 0.00 0.00 86 1014.6
20260502182053 53 341 1.0 1.0 0.00 0.00 0.00 85 1014.7
20260502181552 53 73 0.0 0.0 0.00 0.00 0.00 85 1014.5
20260502181050 52 101 1.0 1.0 0.00 0.00 0.00 86 1014.7
20260502180547 53 102 1.0 2.0 0.00 0.00 0.00 84 1014.6